Vernal, UT

3:45 PM MDT on July 27, 2017 (GMT -0600)
Vernal

Weather History for KVEL - July, 2013

Change the Weather History Date:

Thursday, July 11, 2013

  Actual Average Record
Temperature  
Mean Temperature 77 °F 72 °F  
Max Temperature 95 °F 87 °F 100 °F (1939)
Min Temperature 59 °F 56 °F 40 °F (1977)
Degree Days  
Heating Degree Days 0 0  
Month to date heating degree days 0 2  
Since 1 June heating degree days 15 74  
Since 1 July heating degree days 0 2  
Cooling Degree Days 12 7  
Month to date cooling degree days 132 69  
Year to date cooling degree days 310 160  
Since 1 June cooling degree days 302 151  
Growing Degree Days 26 (Base 50)    
Moisture  
Dew Point 40 °F    
Average Humidity 34    
Maximum Humidity 57    
Minimum Humidity 10    
Precipitation  
Precipitation T in 0.01 in 0.80 in (1932)
Month to date precipitation 0.03 0.19  
Year to date precipitation 3.82 4.40  
Sea Level Pressure  
Sea Level Pressure 29.79 in    
Wind  
Wind Speed 5 mph (WSW)    
Max Wind Speed 26 mph    
Max Gust Speed 39 mph    
Visibility 10 miles    
Events Rain    
T = Trace of Precipitation, MM = Missing Value Source: NWS Daily Summary

Daily Weather History Graph

Daily Weather History Graph

Search for Another Location

Airport or City:

Trip Planner

Search our weather history database for the weather conditions in past years. The results will help you decide how hot, cold, wet, or windy it might be!

Date:

Astronomy

Jul. 11, 2013 Rise Set
Actual Time 5:57 AM MDT 8:49 PM MDT
Civil Twilight 5:25 AM MDT 9:21 PM MDT
Nautical Twilight 4:44 AM MDT 10:02 PM MDT
Astronomical Twilight 3:57 AM MDT 10:49 PM MDT
Moon 9:20 AM MDT (7/11) 10:30 PM MDT (7/11)
Length of Visible Light 15h 56m
Length of Day
14h 51m
Waxing Crescent, 11% of the Moon is Illuminated
Jul 11
Waxing Crescent
Jul 15
First Quarter
Jul 22
Full
Jul 29
Last Quarter
Aug 6
New

Hourly Weather History & Observations

Time (MDT) Temp. Dew Point Humidity Pressure Visibility Wind Dir Wind Speed Gust Speed Precip Events Conditions
12:53 AM 73.0 °F 35.1 °F 25% 29.80 in 10.0 mi WSW 4.6 mph - N/A   Clear
1:53 AM 68.0 °F 36.0 °F 31% 29.80 in 10.0 mi West 3.5 mph - N/A   Clear
2:53 AM 66.0 °F 37.0 °F 34% 29.79 in 10.0 mi West 5.8 mph - N/A   Clear
3:53 AM 66.0 °F 36.0 °F 33% 29.78 in 10.0 mi West 4.6 mph - N/A   Clear
4:53 AM 64.0 °F 39.0 °F 40% 29.80 in 10.0 mi Calm Calm - N/A   Clear
5:53 AM 59.0 °F 39.9 °F 49% 29.83 in 10.0 mi West 4.6 mph - N/A   Clear
6:53 AM 64.0 °F 37.0 °F 37% 29.84 in 10.0 mi WNW 3.5 mph - N/A   Clear
7:53 AM 69.1 °F 39.0 °F 33% 29.83 in 10.0 mi Calm Calm - N/A   Clear
8:53 AM 73.0 °F 43.0 °F 34% 29.86 in 10.0 mi Calm Calm - N/A   Clear
9:53 AM 80.1 °F 36.0 °F 20% 29.84 in 10.0 mi Calm Calm - N/A   Clear
10:53 AM 84.0 °F 37.0 °F 19% 29.82 in 10.0 mi Calm Calm - N/A   Clear
11:53 AM 86.0 °F 39.0 °F 19% 29.80 in 10.0 mi SSW 3.5 mph - N/A   Clear
12:53 PM 88.0 °F 41.0 °F 19% 29.78 in 10.0 mi SSW 6.9 mph - N/A   Clear
1:53 PM 91.9 °F 36.0 °F 14% 29.76 in 10.0 mi SSW 6.9 mph - N/A   Clear
2:53 PM 93.9 °F 28.9 °F 10% 29.73 in 10.0 mi Variable 3.5 mph - N/A   Clear
3:53 PM 93.0 °F 36.0 °F 13% 29.70 in 10.0 mi Calm Calm - N/A   Clear
4:53 PM 91.9 °F 39.0 °F 16% 29.69 in 10.0 mi WSW 5.8 mph - N/A   Clear
5:53 PM 87.1 °F 41.0 °F 20% 29.72 in 10.0 mi West 10.4 mph 23.0 mph N/A   Clear
6:53 PM 87.1 °F 42.1 °F 21% 29.70 in 10.0 mi West 8.1 mph - N/A   Partly Cloudy
7:53 PM 84.9 °F 42.1 °F 22% 29.71 in 10.0 mi West 3.5 mph - N/A   Scattered Clouds
8:53 PM 78.1 °F 50.0 °F 37% 29.83 in 10.0 mi SSW 16.1 mph 29.9 mph 0.00 in Rain Light Rain
9:53 PM 75.0 °F 51.1 °F 43% 29.84 in 10.0 mi WSW 12.7 mph 21.9 mph 0.00 in   Overcast
10:53 PM 73.9 °F 52.0 °F 46% 29.83 in 10.0 mi Calm Calm - 0.00 in   Scattered Clouds
11:53 PM 71.1 °F 55.9 °F 59% 29.85 in 10.0 mi SE 6.9 mph - N/A   Partly Cloudy